owner,sensor,date,latitude,longitude,vertical_datum,direction_of_sea_water_velocity,sea_water_speed,upward_sea_water_velocity,qcFlag 
TABS,ioos:station:wmo:42050:1,2017-05-01T00:00:00Z,28.8425,-94.2433,2.0,216.0011508,25.99498606,-99999.0,'11111222,11111222,99999999' 
TABS,ioos:station:wmo:42050:1,2017-05-01T00:30:00Z,28.8425,-94.2433,2.0,215.0073723,24.00267693,-99999.0,'11111222,11111222,99999999' 
TABS,ioos:station:wmo:42050:1,2017-05-01T01:00:00Z,28.8425,-94.2433,2.0,214.9992377,25.00131997,-99999.0,'11111222,11111222,99999999' 
TABS,ioos:station:wmo:42050:1,2017-05-01T01:30:00Z,28.8425,-94.2433,2.0,213.0034074,25.00490552,-99999.0,'11111222,11111222,99999999' 
TABS,ioos:station:wmo:42050:1,2017-05-01T02:00:00Z,28.8425,-94.2433,2.0,214.9958098,22.99829776,-99999.0,'11111222,11111222,99999999' 
TABS,ioos:station:wmo:42050:1,2017-05-01T02:30:00Z,28.8425,-94.2433,2.0,222.0035698,22.99826515,-99999.0,'11111222,11111222,99999999' 
TABS,ioos:station:wmo:42050:1,2017-05-01T03:00:00Z,28.8425,-94.2433,2.0,228.0027858,22.00002045,-99999.0,'11111222,11111222,99999999' 
TABS,ioos:station:wmo:42050:1,2017-05-01T03:30:00Z,28.8425,-94.2433,2.0,236.0062123,21.99971818,-99999.0,'11111222,11111222,99999999' 
TABS,ioos:station:wmo:42050:1,2017-05-01T04:00:00Z,28.8425,-94.2433,2.0,233.0008688,16.00204049,-99999.0,'11111222,11111222,99999999' 
TABS,ioos:station:wmo:42050:1,2017-05-01T04:30:00Z,28.8425,-94.2433,2.0,236.006882,20.99846899,-99999.0,'11111222,11111222,99999999' 
TABS,ioos:station:wmo:42050:1,2017-05-01T05:00:00Z,28.8425,-94.2433,2.0,248.9921804,25.99798646,-99999.0,'11111222,11111222,99999999' 
TABS,ioos:station:wmo:42050:1,2017-05-01T05:30:00Z,28.8425,-94.2433,2.0,267.0104612,13.9990464,-99999.0,'11111222,11111222,99999999' 
TABS,ioos:station:wmo:42050:1,2017-05-01T06:00:00Z,28.8425,-94.2433,2.0,263.0167519,12.9963995,-99999.0,'11111222,11111222,99999999' 
TABS,ioos:station:wmo:42050:1,2017-05-01T06:30:00Z,28.8425,-94.2433,2.0,263.0167519,12.9963995,-99999.0,'11111222,11111222,99999999' 
TABS,ioos:station:wmo:42050:1,2017-05-01T07:00:00Z,28.8425,-94.2433,2.0,274.9873324,12.99920767,-99999.0,'11111222,11111222,99999999' 
TABS,ioos:station:wmo:42050:1,2017-05-01T07:30:00Z,28.8425,-94.2433,2.0,296.9991609,12.9963995,-99999.0,'11111222,11111222,99999999' 
TABS,ioos:station:wmo:42050:1,2017-05-01T08:00:00Z,28.8425,-94.2433,2.0,323.9897693,10.00112494,-99999.0,'11111222,11111222,99999999' 
TABS,ioos:station:wmo:42050:1,2017-05-01T08:30:00Z,28.8425,-94.2433,2.0,337.975416,9.999769997,-99999.0,'11133222,11111222,99999999' 
TABS,ioos:station:wmo:42050:1,2017-05-01T09:00:00Z,28.8425,-94.2433,2.0,328.9600885,8.99853877,-99999.0,'11133222,11111222,99999999' 
TABS,ioos:station:wmo:42050:1,2017-05-01T09:30:00Z,28.8425,-94.2433,2.0,327.017896,11.00331768,-99999.0,'11111222,11111222,99999999' 
TABS,ioos:station:wmo:42050:1,2017-05-01T10:00:00Z,28.8425,-94.2433,2.0,347.9998354,13.99586367,-99999.0,'11111222,11111222,99999999' 
TABS,ioos:station:wmo:42050:1,2017-05-01T10:30:00Z,28.8425,-94.2433,2.0,344.9916963,11.00542593,-99999.0,'11111222,11111222,99999999' 
TABS,ioos:station:wmo:42050:1,2017-05-01T11:00:00Z,28.8425,-94.2433,2.0,0.000210459,14.0,-99999.0,'11111222,11111222,99999999' 
TABS,ioos:station:wmo:42050:1,2017-05-01T11:30:00Z,28.8425,-94.2433,2.0,7.992505699,9.997104581,-99999.0,'11133222,11111222,99999999' 
TABS,ioos:station:wmo:42050:1,2017-05-01T12:00:00Z,28.8425,-94.2433,2.0,0.000210459,13.0,-99999.0,'11111222,11111222,99999999' 
TABS,ioos:station:wmo:42050:1,2017-05-01T12:30:00Z,28.8425,-94.2433,2.0,13.89735428,0.999249719,-99999.0,'11133222,11111222,99999999' 
TABS,ioos:station:wmo:42050:1,2017-05-01T13:00:00Z,28.8425,-94.2433,2.0,29.99370736,8.001556099,-99999.0,'11133222,11111222,99999999' 
TABS,ioos:station:wmo:42050:1,2017-05-01T13:30:00Z,28.8425,-94.2433,2.0,38.01578205,5.0009999,-99999.0,'11133222,11111222,99999999' 
TABS,ioos:station:wmo:42050:1,2017-05-01T14:00:00Z,28.8425,-94.2433,2.0,308.0102037,18.99976052,-99999.0,'11111222,11111222,99999999' 
TABS,ioos:station:wmo:42050:1,2017-05-01T14:30:00Z,28.8425,-94.2433,2.0,99.04497546,6.997006503,-99999.0,'11133222,11111222,99999999' 
TABS,ioos:station:wmo:42050:1,2017-05-01T15:00:00Z,28.8425,-94.2433,2.0,112.9726676,4.996248593,-99999.0,'11133222,11111222,99999999' 
TABS,ioos:station:wmo:42050:1,2017-05-01T15:30:00Z,28.8425,-94.2433,2.0,112.9726676,4.996248593,-99999.0,'11133222,11111222,99999999' 
TABS,ioos:station:wmo:42050:1,2017-05-01T16:00:00Z,28.8425,-94.2433,2.0,119.9934969,8.001556099,-99999.0,'11133222,11111222,99999999' 
TABS,ioos:station:wmo:42050:1,2017-05-01T16:30:00Z,28.8425,-94.2433,2.0,131.9823823,8.999805553,-99999.0,'11133222,11111222,99999999' 
TABS,ioos:station:wmo:42050:1,2017-05-01T17:00:00Z,28.8425,-94.2433,2.0,134.9998948,9.998489886,-99999.0,'11133222,11111222,99999999' 
TABS,ioos:station:wmo:42050:1,2017-05-01T17:30:00Z,28.8425,-94.2433,2.0,125.00474,10.99982727,-99999.0,'11111222,11111222,99999999' 
TABS,ioos:station:wmo:42050:1,2017-05-02T09:00:00Z,28.8425,-94.2433,2.0,266.0098314,22.99573004,-99999.0,'11111222,11111222,99999999' 
TABS,ioos:station:wmo:42050:1,2017-05-02T09:30:00Z,28.8425,-94.2433,2.0,265.9854128,19.99906248,-99999.0,'11111222,11111222,99999999' 
TABS,ioos:station:wmo:42050:1,2017-05-02T10:00:00Z,28.8425,-94.2433,2.0,272.9967757,22.00007727,-99999.0,'11111222,11111222,99999999' 
TABS,ioos:station:wmo:42050:1,2017-05-02T10:30:00Z,28.8425,-94.2433,2.0,270.0004209,17.0,-99999.0,'11111222,11111222,99999999' 
TABS,ioos:station:wmo:42050:1,2017-05-02T11:00:00Z,28.8425,-94.2433,2.0,283.9875981,17.0041789,-99999.0,'11111222,11111222,99999999' 
TABS,ioos:station:wmo:42050:1,2017-05-02T11:30:00Z,28.8425,-94.2433,2.0,287.9877135,17.0009235,-99999.0,'11111222,11111222,99999999' 
TABS,ioos:station:wmo:42050:1,2017-05-02T12:00:00Z,28.8425,-94.2433,2.0,298.9918848,14.99957666,-99999.0,'11111222,11111222,99999999' 
TABS,ioos:station:wmo:42050:1,2017-05-02T12:30:00Z,28.8425,-94.2433,2.0,299.9966716,13.00144607,-99999.0,'11111222,11111222,99999999' 
TABS,ioos:station:wmo:42050:1,2017-05-02T13:00:00Z,28.8425,-94.2433,2.0,341.0077005,12.9975767,-99999.0,'11111222,11111222,99999999' 
TABS,ioos:station:wmo:42050:1,2017-05-02T13:30:00Z,28.8425,-94.2433,2.0,291.0035945,11.99708298,-99999.0,'11111222,11111222,99999999' 
TABS,ioos:station:wmo:42050:1,2017-05-02T14:00:00Z,28.8425,-94.2433,2.0,291.0173209,8.002362151,-99999.0,'11133222,11111222,99999999' 
TABS,ioos:station:wmo:42050:1,2017-05-02T14:30:00Z,28.8425,-94.2433,2.0,295.9890574,12.00382023,-99999.0,'11111222,11111222,99999999' 
TABS,ioos:station:wmo:42050:1,2017-05-02T15:00:00Z,28.8425,-94.2433,2.0,284.99176,8.002362151,-99999.0,'11133222,11111222,99999999' 
TABS,ioos:station:wmo:42050:1,2017-05-02T15:30:00Z,28.8425,-94.2433,2.0,264.0039172,8.999227745,-99999.0,'11133222,11111222,99999999' 
TABS,ioos:station:wmo:42050:1,2017-05-02T16:00:00Z,28.8425,-94.2433,2.0,260.0159671,14.99709639,-99999.0,'11111222,11111222,99999999' 
TABS,ioos:station:wmo:42050:1,2017-05-02T16:30:00Z,28.8425,-94.2433,2.0,250.9911323,12.00460745,-99999.0,'11111222,11111222,99999999' 
TABS,ioos:station:wmo:42050:1,2017-05-02T17:00:00Z,28.8425,-94.2433,2.0,248.98856,14.00090354,-99999.0,'11111222,11111222,99999999' 
TABS,ioos:station:wmo:42050:1,2017-05-02T17:30:00Z,28.8425,-94.2433,2.0,245.0120404,12.99648029,-99999.0,'11111222,11111222,99999999' 
TABS,ioos:station:wmo:42050:1,2017-05-02T18:00:00Z,28.8425,-94.2433,2.0,253.9980152,14.00254263,-99999.0,'11111222,11111222,99999999' 
TABS,ioos:station:wmo:42050:1,2017-05-02T18:30:00Z,28.8425,-94.2433,2.0,237.0135442,13.99614233,-99999.0,'11111222,11111222,99999999' 
TABS,ioos:station:wmo:42050:1,2017-05-02T19:00:00Z,28.8425,-94.2433,2.0,250.9911323,12.00460745,-99999.0,'11111222,11111222,99999999' 
TABS,ioos:station:wmo:42050:1,2017-05-02T19:30:00Z,28.8425,-94.2433,2.0,258.0156377,13.00339956,-99999.0,'11111222,11111222,99999999' 
TABS,ioos:station:wmo:42050:1,2017-05-02T20:00:00Z,28.8425,-94.2433,2.0,274.9873324,12.99920767,-99999.0,'11111222,11111222,99999999' 
TABS,ioos:station:wmo:42050:1,2017-05-02T20:30:00Z,28.8425,-94.2433,2.0,259.9957706,16.00331216,-99999.0,'11111222,11111222,99999999' 
TABS,ioos:station:wmo:42050:1,2017-05-02T21:00:00Z,28.8425,-94.2433,2.0,254.9910649,11.00542593,-99999.0,'11111222,11111222,99999999' 
TABS,ioos:station:wmo:42050:1,2017-05-02T21:30:00Z,28.8425,-94.2433,2.0,278.9985537,14.00232124,-99999.0,'11111222,11111222,99999999' 
TABS,ioos:station:wmo:42050:1,2017-05-02T22:00:00Z,28.8425,-94.2433,2.0,264.0039172,8.999227745,-99999.0,'11133222,11111222,99999999' 
TABS,ioos:station:wmo:42050:1,2017-05-02T22:30:00Z,28.8425,-94.2433,2.0,278.0179393,17.99590231,-99999.0,'11111222,11111222,99999999' 
TABS,ioos:station:wmo:42050:1,2017-05-02T23:00:00Z,28.8425,-94.2433,2.0,274.9935014,17.00452881,-99999.0,'11111222,11111222,99999999' 
TABS,ioos:station:wmo:42050:1,2017-05-02T23:30:00Z,28.8425,-94.2433,2.0,260.9998833,10.99536266,-99999.0,'11111222,11111222,99999999' 
TABS,ioos:station:wmo:42050:1,2017-05-03T00:00:00Z,28.8425,-94.2433,2.0,274.9841094,16.00049062,-99999.0,'11111222,11111222,99999999' 
TABS,ioos:station:wmo:42050:1,2017-05-03T00:30:00Z,28.8425,-94.2433,2.0,266.9905624,16.00206237,-99999.0,'11111222,11111222,99999999' 
TABS,ioos:station:wmo:42050:1,2017-05-03T01:00:00Z,28.8425,-94.2433,2.0,264.0039172,17.99845549,-99999.0,'11111222,11111222,99999999' 
TABS,ioos:station:wmo:42050:1,2017-05-03T01:30:00Z,28.8425,-94.2433,2.0,0.0,0.0,-99999.0,'11133222,11111222,99999999' 
TABS,ioos:station:wmo:42050:1,2017-05-03T02:00:00Z,28.8425,-94.2433,2.0,262.986777,19.00215777,-99999.0,'11111222,11111222,99999999' 
TABS,ioos:station:wmo:42050:1,2017-05-03T02:30:00Z,28.8425,-94.2433,2.0,251.0029693,19.99920498,-99999.0,'11111222,11111222,99999999' 
TABS,ioos:station:wmo:42050:1,2017-05-03T03:00:00Z,28.8425,-94.2433,2.0,253.999474,23.00103693,-99999.0,'11111222,11111222,99999999' 
TABS,ioos:station:wmo:42050:1,2017-05-03T03:30:00Z,28.8425,-94.2433,2.0,242.9861428,23.9982166,-99999.0,'11111222,11111222,99999999' 
TABS,ioos:station:wmo:42050:1,2017-05-03T04:00:00Z,28.8425,-94.2433,2.0,248.9983157,25.00074399,-99999.0,'11111222,11111222,99999999' 
TABS,ioos:station:wmo:42050:1,2017-05-03T05:00:00Z,28.8425,-94.2433,2.0,249.0049609,24.00350183,-99999.0,'11111222,11111222,99999999' 
TABS,ioos:station:wmo:42050:1,2017-05-03T05:30:00Z,28.8425,-94.2433,2.0,252.0047036,27.99963214,-99999.0,'11111222,11111222,99999999' 
TABS,ioos:station:wmo:42050:1,2017-05-03T06:00:00Z,28.8425,-94.2433,2.0,247.9968241,27.99931606,-99999.0,'11111222,11111222,99999999' 
TABS,ioos:station:wmo:42050:1,2017-05-03T06:30:00Z,28.8425,-94.2433,2.0,249.0076634,27.99822316,-99999.0,'11111222,11111222,99999999' 
TABS,ioos:station:wmo:42050:1,2017-05-03T07:00:00Z,28.8425,-94.2433,2.0,342.0482914,6.002216257,-99999.0,'11133222,11111222,99999999' 
TABS,ioos:station:wmo:42050:1,2017-05-03T07:30:00Z,28.8425,-94.2433,2.0,260.0022438,24.9996,-99999.0,'11111222,11111222,99999999' 
TABS,ioos:station:wmo:42050:1,2017-05-03T08:00:00Z,28.8425,-94.2433,2.0,89.00273208,27.00409043,-99999.0,'11111222,11111222,99999999' 
TABS,ioos:station:wmo:42050:1,2017-05-03T08:30:00Z,28.8425,-94.2433,2.0,261.0007588,24.99768389,-99999.0,'11111222,11111222,99999999' 
TABS,ioos:station:wmo:42050:1,2017-05-03T09:00:00Z,28.8425,-94.2433,2.0,264.0039172,26.99768323,-99999.0,'11111222,11111222,99999999' 
TABS,ioos:station:wmo:42050:1,2017-05-03T09:30:00Z,28.8425,-94.2433,2.0,263.9968347,24.00160411,-99999.0,'11111222,11111222,99999999' 
TABS,ioos:station:wmo:42050:1,2017-05-03T10:00:00Z,28.8425,-94.2433,2.0,270.0004209,20.0,-99999.0,'11111222,11111222,99999999' 
TABS,ioos:station:wmo:42050:1,2017-05-03T10:30:00Z,28.8425,-94.2433,2.0,284.997936,23.99742695,-99999.0,'11111222,11111222,99999999' 
TABS,ioos:station:wmo:42050:1,2017-05-03T11:00:00Z,28.8425,-94.2433,2.0,283.9919663,28.00074642,-99999.0,'11111222,11111222,99999999' 
TABS,ioos:station:wmo:42050:1,2017-05-03T11:30:00Z,28.8425,-94.2433,2.0,321.0199087,12.00214148,-99999.0,'11111222,11111222,99999999' 
TABS,ioos:station:wmo:42050:1,2017-05-03T12:00:00Z,28.8425,-94.2433,2.0,294.0016458,20.99533281,-99999.0,'11111222,11111222,99999999' 
TABS,ioos:station:wmo:42050:1,2017-05-03T12:30:00Z,28.8425,-94.2433,2.0,300.0036832,21.99778398,-99999.0,'11111222,11111222,99999999' 
TABS,ioos:station:wmo:42050:1,2017-05-03T13:00:00Z,28.8425,-94.2433,2.0,313.9873352,17.99868051,-99999.0,'11111222,11111222,99999999' 
TABS,ioos:station:wmo:42050:1,2017-05-03T13:30:00Z,28.8425,-94.2433,2.0,320.9870412,19.9999925,-99999.0,'11111222,11111222,99999999' 
TABS,ioos:station:wmo:42050:1,2017-05-03T14:00:00Z,28.8425,-94.2433,2.0,308.9991344,19.00511773,-99999.0,'11111222,11111222,99999999' 
TABS,ioos:station:wmo:42050:1,2017-05-03T14:30:00Z,28.8425,-94.2433,2.0,310.9745009,13.99990357,-99999.0,'11111222,11111222,99999999' 
TABS,ioos:station:wmo:42050:1,2017-05-03T15:00:00Z,28.8425,-94.2433,2.0,305.9820729,11.99944165,-99999.0,'11111222,11111222,99999999' 
TABS,ioos:station:wmo:42050:1,2017-05-03T15:30:00Z,28.8425,-94.2433,2.0,320.0051542,11.99584095,-99999.0,'11111222,11111222,99999999' 
TABS,ioos:station:wmo:42050:1,2017-05-03T16:00:00Z,28.8425,-94.2433,2.0,305.0051609,10.99982727,-99999.0,'11111222,11111222,99999999' 
TABS,ioos:station:wmo:42050:1,2017-05-03T16:30:00Z,28.8425,-94.2433,2.0,293.0007031,11.00485802,-99999.0,'11111222,11111222,99999999' 
TABS,ioos:station:wmo:42050:1,2017-05-03T17:00:00Z,28.8425,-94.2433,2.0,284.021188,8.998072016,-99999.0,'11133222,11111222,99999999' 
TABS,ioos:station:wmo:42050:1,2017-05-03T17:30:00Z,28.8425,-94.2433,2.0,297.0208054,9.002694041,-99999.0,'11133222,11111222,99999999' 
TABS,ioos:station:wmo:42050:1,2017-05-03T18:00:00Z,28.8425,-94.2433,2.0,335.0352424,4.004122875,-99999.0,'11133222,11111222,99999999' 
TABS,ioos:station:wmo:42050:1,2017-05-03T18:30:00Z,28.8425,-94.2433,2.0,78.05225132,2.994878962,-99999.0,'11133222,11111222,99999999' 
TABS,ioos:station:wmo:42050:1,2017-05-03T19:00:00Z,28.8425,-94.2433,2.0,297.078109,1.999124809,-99999.0,'11133222,11111222,99999999' 
TABS,ioos:station:wmo:42050:1,2017-05-03T19:30:00Z,28.8425,-94.2433,2.0,297.078109,1.999124809,-99999.0,'11133222,11111222,99999999' 
TABS,ioos:station:wmo:42050:1,2017-05-03T20:00:00Z,28.8425,-94.2433,2.0,179.9997895,2.0,-99999.0,'11133222,11111222,99999999' 
TABS,ioos:station:wmo:42050:1,2017-05-03T20:30:00Z,28.8425,-94.2433,2.0,161.9275097,2.997899264,-99999.0,'11133222,11111222,99999999' 
TABS,ioos:station:wmo:42050:1,2017-05-03T21:00:00Z,28.8425,-94.2433,2.0,270.0004209,4.0,-99999.0,'11133222,11111222,99999999' 
TABS,ioos:station:wmo:42050:1,2017-05-03T21:30:00Z,28.8425,-94.2433,2.0,334.8448968,1.999649969,-99999.0,'11133222,11111222,99999999' 
TABS,ioos:station:wmo:42050:1,2017-05-03T22:00:00Z,28.8425,-94.2433,2.0,27.07789854,1.999124809,-99999.0,'11133222,11111222,99999999' 
TABS,ioos:station:wmo:42050:1,2017-05-03T22:30:00Z,28.8425,-94.2433,2.0,341.9279306,2.997899264,-99999.0,'11133222,11111222,99999999' 
TABS,ioos:station:wmo:42050:1,2017-05-03T23:00:00Z,28.8425,-94.2433,2.0,342.0482914,6.002216257,-99999.0,'11133222,11111222,99999999' 
TABS,ioos:station:wmo:42050:1,2017-05-03T23:30:00Z,28.8425,-94.2433,2.0,339.0285489,5.001299831,-99999.0,'11133222,11111222,99999999' 
TABS,ioos:station:wmo:42050:1,2017-05-04T00:00:00Z,28.8425,-94.2433,2.0,347.0056241,4.002499219,-99999.0,'11133222,11111222,99999999' 
TABS,ioos:station:wmo:42050:1,2017-05-04T00:30:00Z,28.8425,-94.2433,2.0,350.9928772,6.004040306,-99999.0,'11133222,11111222,99999999' 
TABS,ioos:station:wmo:42050:1,2017-05-04T01:00:00Z,28.8425,-94.2433,2.0,339.0285489,5.001299831,-99999.0,'11133222,11111222,99999999' 
TABS,ioos:station:wmo:42050:1,2017-05-04T01:30:00Z,28.8425,-94.2433,2.0,339.0285489,5.001299831,-99999.0,'11133222,11111222,99999999' 
TABS,ioos:station:wmo:42050:1,2017-05-04T02:00:00Z,28.8425,-94.2433,2.0,270.0004209,3.0,-99999.0,'11133222,11111222,99999999' 
TABS,ioos:station:wmo:42050:1,2017-05-04T02:30:00Z,28.8425,-94.2433,2.0,270.0004209,3.0,-99999.0,'11133222,11111222,99999999' 
TABS,ioos:station:wmo:42050:1,2017-05-04T03:00:00Z,28.8425,-94.2433,2.0,231.037837,7.999331222,-99999.0,'11133222,11111222,99999999' 
TABS,ioos:station:wmo:42050:1,2017-05-04T03:30:00Z,28.8425,-94.2433,2.0,211.9949786,6.00170809,-99999.0,'11133222,11111222,99999999' 
TABS,ioos:station:wmo:42050:1,2017-05-04T04:00:00Z,28.8425,-94.2433,2.0,169.9959811,16.00331216,-99999.0,'11111222,11111222,99999999' 
TABS,ioos:station:wmo:42050:1,2017-05-04T05:00:00Z,28.8425,-94.2433,2.0,224.9996843,11.00258152,-99999.0,'11111222,11111222,99999999' 
TABS,ioos:station:wmo:42050:1,2017-05-04T05:30:00Z,28.8425,-94.2433,2.0,204.0087651,34.99797851,-99999.0,'11111222,11111222,99999999' 
TABS,ioos:station:wmo:42050:1,2017-05-04T06:00:00Z,28.8425,-94.2433,2.0,281.003936,11.00227249,-99999.0,'11111222,11111222,99999999' 
TABS,ioos:station:wmo:42050:1,2017-05-04T06:30:00Z,28.8425,-94.2433,2.0,216.0015515,33.00378766,-99999.0,'11111222,11111222,99999999' 
TABS,ioos:station:wmo:42050:1,2017-05-04T07:00:00Z,28.8425,-94.2433,2.0,218.9984026,33.00477844,-99999.0,'11111222,11111222,99999999' 
TABS,ioos:station:wmo:42050:1,2017-05-04T07:30:00Z,28.8425,-94.2433,2.0,217.9973043,24.99884197,-99999.0,'11111222,11111222,99999999' 
TABS,ioos:station:wmo:42050:1,2017-05-04T08:00:00Z,28.8425,-94.2433,2.0,218.9898768,26.00180186,-99999.0,'11111222,11111222,99999999' 
TABS,ioos:station:wmo:42050:1,2017-05-04T08:30:00Z,28.8425,-94.2433,2.0,223.9966307,21.00429004,-99999.0,'11111222,11111222,99999999' 
TABS,ioos:station:wmo:42050:1,2017-05-04T09:00:00Z,28.8425,-94.2433,2.0,231.0086762,9.996849504,-99999.0,'11133222,11111222,99999999' 
TABS,ioos:station:wmo:42050:1,2017-05-04T09:30:00Z,28.8425,-94.2433,2.0,224.9996843,14.00071427,-99999.0,'11111222,11111222,99999999' 
TABS,ioos:station:wmo:42050:1,2017-05-04T10:00:00Z,28.8425,-94.2433,2.0,251.0088916,14.99622619,-99999.0,'11111222,11111222,99999999' 
TABS,ioos:station:wmo:42050:1,2017-05-04T10:30:00Z,28.8425,-94.2433,2.0,258.0156377,13.00339956,-99999.0,'11111222,11111222,99999999' 
TABS,ioos:station:wmo:42050:1,2017-05-04T11:00:00Z,28.8425,-94.2433,2.0,229.9577141,8.999788886,-99999.0,'11133222,11111222,99999999' 
TABS,ioos:station:wmo:42050:1,2017-05-04T11:30:00Z,28.8425,-94.2433,2.0,251.0088916,14.99622619,-99999.0,'11111222,11111222,99999999' 
TABS,ioos:station:wmo:42050:1,2017-05-04T12:00:00Z,28.8425,-94.2433,2.0,249.0107331,10.99984091,-99999.0,'11111222,11111222,99999999' 
TABS,ioos:station:wmo:42050:1,2017-05-04T12:30:00Z,28.8425,-94.2433,2.0,239.9941459,11.998004,-99999.0,'11111222,11111222,99999999' 
TABS,ioos:station:wmo:42050:1,2017-05-04T13:00:00Z,28.8425,-94.2433,2.0,224.9996843,11.00258152,-99999.0,'11111222,11111222,99999999' 
TABS,ioos:station:wmo:42050:1,2017-05-04T13:30:00Z,28.8425,-94.2433,2.0,270.0004209,10.0,-99999.0,'11111222,11111222,99999999' 
TABS,ioos:station:wmo:42050:1,2017-05-04T14:00:00Z,28.8425,-94.2433,2.0,229.9577141,8.999788886,-99999.0,'11133222,11111222,99999999' 
TABS,ioos:station:wmo:42050:1,2017-05-04T14:30:00Z,28.8425,-94.2433,2.0,245.0120404,12.99648029,-99999.0,'11111222,11111222,99999999' 
TABS,ioos:station:wmo:42050:1,2017-05-04T15:00:00Z,28.8425,-94.2433,2.0,239.9941459,11.998004,-99999.0,'11111222,11111222,99999999' 
TABS,ioos:station:wmo:42050:1,2017-05-04T15:30:00Z,28.8425,-94.2433,2.0,229.9577141,8.999788886,-99999.0,'11133222,11111222,99999999' 
TABS,ioos:station:wmo:42050:1,2017-05-04T16:00:00Z,28.8425,-94.2433,2.0,208.9912534,14.99957666,-99999.0,'11111222,11111222,99999999' 
TABS,ioos:station:wmo:42050:1,2017-05-04T16:30:00Z,28.8425,-94.2433,2.0,213.0011619,15.00017667,-99999.0,'11111222,11111222,99999999' 
TABS,ioos:station:wmo:42050:1,2017-05-04T17:00:00Z,28.8425,-94.2433,2.0,179.9997895,21.0,-99999.0,'11111222,11111222,99999999' 
TABS,ioos:station:wmo:42050:1,2017-05-04T17:30:00Z,28.8425,-94.2433,2.0,175.9856232,19.99906248,-99999.0,'11111222,11111222,99999999' 
TABS,ioos:station:wmo:42050:1,2017-05-04T18:00:00Z,28.8425,-94.2433,2.0,170.9973963,16.99940293,-99999.0,'11111222,11111222,99999999' 
TABS,ioos:station:wmo:42050:1,2017-05-04T18:30:00Z,28.8425,-94.2433,2.0,170.9973963,16.99940293,-99999.0,'11111222,11111222,99999999' 
TABS,ioos:station:wmo:42050:1,2017-05-04T19:00:00Z,28.8425,-94.2433,2.0,164.9987071,18.00354687,-99999.0,'11111222,11111222,99999999' 
TABS,ioos:station:wmo:42050:1,2017-05-04T19:30:00Z,28.8425,-94.2433,2.0,178.9972181,24.00367472,-99999.0,'11111222,11111222,99999999' 
TABS,ioos:station:wmo:42050:1,2017-05-04T20:00:00Z,28.8425,-94.2433,2.0,177.0123738,18.99581533,-99999.0,'11111222,11111222,99999999' 
TABS,ioos:station:wmo:42050:1,2017-05-04T20:30:00Z,28.8425,-94.2433,2.0,155.0122509,12.99648029,-99999.0,'11111222,11111222,99999999' 
TABS,ioos:station:wmo:42050:1,2017-05-04T21:00:00Z,28.8425,-94.2433,2.0,143.0010792,16.00204049,-99999.0,'11111222,11111222,99999999' 
TABS,ioos:station:wmo:42050:1,2017-05-04T21:30:00Z,28.8425,-94.2433,2.0,166.9890892,7.995254843,-99999.0,'11133222,11111222,99999999' 
TABS,ioos:station:wmo:42050:1,2017-05-04T22:00:00Z,28.8425,-94.2433,2.0,132.0142246,10.99629483,-99999.0,'11111222,11111222,99999999' 
TABS,ioos:station:wmo:42050:1,2017-05-04T22:30:00Z,28.8425,-94.2433,2.0,146.0095489,8.997360724,-99999.0,'11133222,11111222,99999999' 
TABS,ioos:station:wmo:42050:1,2017-05-04T23:00:00Z,28.8425,-94.2433,2.0,111.0031736,11.99708298,-99999.0,'11111222,11111222,99999999' 
TABS,ioos:station:wmo:42050:1,2017-05-04T23:30:00Z,28.8425,-94.2433,2.0,125.00474,10.99982727,-99999.0,'11111222,11111222,99999999' 
TABS,ioos:station:wmo:42050:1,2017-05-05T00:00:00Z,28.8425,-94.2433,2.0,128.9851191,10.99949544,-99999.0,'11111222,11111222,99999999' 
TABS,ioos:station:wmo:42050:1,2017-05-05T00:30:00Z,28.8425,-94.2433,2.0,117.0203845,9.002694041,-99999.0,'11133222,11111222,99999999' 
TABS,ioos:station:wmo:42050:1,2017-05-05T01:00:00Z,28.8425,-94.2433,2.0,128.0155716,10.0019998,-99999.0,'11111222,11111222,99999999' 
TABS,ioos:station:wmo:42050:1,2017-05-05T01:30:00Z,28.8425,-94.2433,2.0,134.9998948,7.000357134,-99999.0,'11133222,11111222,99999999' 
TABS,ioos:station:wmo:42050:1,2017-05-05T02:00:00Z,28.8425,-94.2433,2.0,113.9697049,7.9999125,-99999.0,'11133222,11111222,99999999' 
TABS,ioos:station:wmo:42050:1,2017-05-05T02:30:00Z,28.8425,-94.2433,2.0,97.97810586,7.997405829,-99999.0,'11133222,11111222,99999999' 
TABS,ioos:station:wmo:42050:1,2017-05-05T03:00:00Z,28.8425,-94.2433,2.0,128.0155716,10.0019998,-99999.0,'11111222,11111222,99999999' 
TABS,ioos:station:wmo:42050:1,2017-05-05T03:30:00Z,28.8425,-94.2433,2.0,134.9998948,11.00258152,-99999.0,'11111222,11111222,99999999' 
TABS,ioos:station:wmo:42050:1,2017-05-05T04:00:00Z,28.8425,-94.2433,2.0,140.0047333,11.99584095,-99999.0,'11111222,11111222,99999999' 
TABS,ioos:station:wmo:42050:1,2017-05-05T04:30:00Z,28.8425,-94.2433,2.0,134.9998948,11.00258152,-99999.0,'11111222,11111222,99999999' 
TABS,ioos:station:wmo:42050:1,2017-05-05T05:00:00Z,28.8425,-94.2433,2.0,139.9912164,13.00350722,-99999.0,'11111222,11111222,99999999' 
TABS,ioos:station:wmo:42050:1,2017-05-05T05:30:00Z,28.8425,-94.2433,2.0,139.9579245,8.999788886,-99999.0,'11133222,11111222,99999999' 
TABS,ioos:station:wmo:42050:1,2017-05-05T06:00:00Z,28.8425,-94.2433,2.0,148.9596676,8.99853877,-99999.0,'11133222,11111222,99999999' 
TABS,ioos:station:wmo:42050:1,2017-05-05T06:30:00Z,28.8425,-94.2433,2.0,107.0184533,11.0017635,-99999.0,'11111222,11111222,99999999' 
TABS,ioos:station:wmo:42050:1,2017-05-05T07:00:00Z,28.8425,-94.2433,2.0,108.0000325,9.999409983,-99999.0,'11133222,11111222,99999999' 
TABS,ioos:station:wmo:42050:1,2017-05-05T07:30:00Z,28.8425,-94.2433,2.0,140.0142839,11.0022634,-99999.0,'11111222,11111222,99999999' 
TABS,ioos:station:wmo:42050:1,2017-05-05T08:00:00Z,28.8425,-94.2433,2.0,117.0040276,7.003570518,-99999.0,'11133222,11111222,99999999' 